Klawock, AK

5:20 AM AKST on February 25, 2018 (GMT -0900)
Klawock

Weather History for PAKW - October, 2013

Change the Weather History Date:

Saturday, October 12, 2013

  Actual Average Record
Temperature  
Mean Temperature 45 °F -  
Max Temperature 52 °F 50 °F 57 °F (2000)
Min Temperature 39 °F 40 °F 30 °F (2017)
Degree Days  
Heating Degree Days 20    
Moisture  
Dew Point 43 °F    
Average Humidity 95    
Maximum Humidity 100    
Minimum Humidity 77    
Precipitation  
Precipitation 0.01 in - - ()
Sea Level Pressure  
Sea Level Pressure 30.22 in    
Wind  
Wind Speed 0 mph (NNE)    
Max Wind Speed 5 mph    
Max Gust Speed -    
Visibility 6 miles    
Events Fog    
Averages and records for this station are not official NWS values.
T = Trace of Precipitation, MM = Missing Value Source: NWS Daily Summary

Daily Weather History Graph

Daily Weather History Graph

Search for Another Location

Airport or City:

Trip Planner

Search our weather history database for the weather conditions in past years. The results will help you decide how hot, cold, wet, or windy it might be!

Date:

Astronomy

Oct. 12, 2013 Rise Set
Actual Time 7:17 AM AKDT 5:58 PM AKDT
Civil Twilight 6:40 AM AKDT 6:35 PM AKDT
Nautical Twilight 5:58 AM AKDT 7:18 PM AKDT
Astronomical Twilight 5:15 AM AKDT 8:00 PM AKDT
Moon 3:10 PM AKDT (10/12) No Moon Set
Length of Visible Light 11h 55m
Length of Day
10h 40m
First Quarter, 60% of the Moon is Illuminated
Oct 12
First Quarter
Oct 18
Full
Oct 26
Last Quarter
Nov 3
New
Nov 9
First Quarter

Hourly Weather History & Observations

Time (AKDT) Temp. Dew Point Humidity Pressure Visibility Wind Dir Wind Speed Gust Speed Precip Events Conditions
12:53 AM 42.1 °F 41.0 °F 96% 30.21 in 0.8 mi Calm Calm - 0.01 in   Overcast
1:53 AM 41.0 °F 39.9 °F 96% 30.22 in 0.5 mi Calm Calm - N/A Fog Fog
2:53 AM 41.0 °F 39.9 °F 96% 30.22 in 0.5 mi Calm Calm - N/A Fog Fog
3:08 AM 41.0 °F 39.2 °F 93% 30.22 in 0.8 mi Calm Calm - N/A   Overcast
3:27 AM 39.2 °F 39.2 °F 100% 30.21 in 1.2 mi Calm Calm - N/A   Overcast
3:34 AM 39.2 °F 39.2 °F 100% 30.21 in 0.8 mi Calm Calm - N/A   Overcast
3:53 AM 39.9 °F 39.0 °F 97% 30.22 in 0.8 mi Calm Calm - N/A   Overcast
4:06 AM 39.2 °F 39.2 °F 100% 30.21 in 0.8 mi Calm Calm - N/A   Overcast
4:15 AM 39.2 °F 39.2 °F 100% 30.21 in 1.5 mi Calm Calm - N/A   Overcast
4:19 AM 39.2 °F 39.2 °F 100% 30.21 in 2.0 mi Calm Calm - N/A   Overcast
4:24 AM 39.2 °F 39.2 °F 100% 30.21 in 1.2 mi Calm Calm - N/A   Overcast
4:33 AM 39.2 °F 39.2 °F 100% 30.21 in 0.5 mi Calm Calm - N/A Fog Fog
4:53 AM 39.9 °F 39.9 °F 100% 30.22 in 0.2 mi Calm Calm - N/A Fog Fog
5:53 AM 39.9 °F 39.0 °F 97% 30.22 in 0.8 mi Calm Calm - N/A   Overcast
6:53 AM 39.9 °F 39.0 °F 97% 30.22 in 0.2 mi Calm Calm - N/A Fog Fog
7:53 AM 39.9 °F 39.9 °F 100% 30.22 in 0.2 mi Calm Calm - N/A Fog Fog
8:53 AM 43.0 °F 42.1 °F 97% 30.22 in 3.0 mi Calm Calm - N/A   Overcast
9:28 AM 42.8 °F 42.8 °F 100% 30.23 in 10.0 mi Calm Calm - N/A   Overcast
9:53 AM 44.1 °F 44.1 °F 100% 30.22 in 10.0 mi Calm Calm - N/A   Overcast
10:08 AM 44.6 °F 42.8 °F 93% 30.22 in 10.0 mi Calm Calm - N/A   Overcast
10:21 AM 44.6 °F 44.6 °F 100% 30.22 in 10.0 mi Calm Calm - N/A   Overcast
10:53 AM 46.0 °F 44.1 °F 93% 30.23 in 10.0 mi Calm Calm - N/A   Overcast
11:53 AM 46.9 °F 45.0 °F 93% 30.24 in 10.0 mi Calm Calm - N/A   Overcast
12:13 PM 48.2 °F 46.4 °F 93% 30.24 in 10.0 mi Calm Calm - N/A   Overcast
12:30 PM 48.2 °F 46.4 °F 93% 30.24 in 10.0 mi Calm Calm - N/A   Overcast
12:51 PM 48.2 °F 46.4 °F 93% 30.24 in 10.0 mi Calm Calm - N/A   Overcast
12:53 PM 48.0 °F 46.0 °F 93% 30.25 in 10.0 mi Calm Calm - N/A   Overcast
1:53 PM 50.0 °F 45.0 °F 83% 30.24 in 10.0 mi Calm Calm - N/A   Overcast
2:53 PM 51.1 °F 44.1 °F 77% 30.22 in 10.0 mi Variable 3.5 mph - N/A   Scattered Clouds
3:53 PM 51.1 °F 44.1 °F 77% 30.23 in 10.0 mi Calm Calm - N/A   Mostly Cloudy
4:53 PM 50.0 °F 46.0 °F 86% 30.22 in 10.0 mi Calm Calm - N/A   Mostly Cloudy
5:53 PM 48.0 °F 46.0 °F 93% 30.21 in 10.0 mi Calm Calm - N/A   Overcast
6:53 PM 46.9 °F 46.0 °F 97% 30.22 in 10.0 mi Calm Calm - N/A   Overcast
7:53 PM 46.9 °F 45.0 °F 93% 30.21 in 10.0 mi Calm Calm - N/A   Mostly Cloudy
8:53 PM 46.9 °F 45.0 °F 93% 30.21 in 10.0 mi Calm Calm - N/A   Overcast
9:53 PM 46.0 °F 44.1 °F 93% 30.22 in 10.0 mi Calm Calm - N/A   Overcast
10:53 PM 46.9 °F 45.0 °F 93% 30.22 in 10.0 mi NNE 4.6 mph - N/A   Overcast
11:53 PM 46.9 °F 45.0 °F 93% 30.22 in 10.0 mi Calm Calm - N/A   Overcast